Location: Beang
(6.6177°N, 10.9863°W)
Time: 23:59:21
(UTC+00:00)

OAO 1 Rocket - Pass Details

Date: 07 June 2020
Orbit: 744 x 755 km, 35.0° (Epoch: 13 July)

Event Time Altitude Azimuth Distance (km) Brightness Sun altitude
Exits shadow 04:48:35 60° 248° (WSW) 850 4.3 -23.2°
Maximum altitude 04:49:32 82° 324° (NW) 758 4.3 -23.0°
Drops below altitude 10° 04:54:52 10° 51° (NE) 2,256 8.0 -21.8°
Sets 04:57:19 0° 52° (NE) 3,177 9.2 -21.2°
